Time,TemperatureF,DewpointF,PressureIn,WindDirection,WindDirectionDegrees,WindSpeedMPH,WindSpeedGustMPH,Humidity,HourlyPrecipIn,Conditions,Clouds,dailyrainin,SoftwareType,DateUTC
2013-10-25 00:04:00,35.5,31.9,30.11,North,0,0.0,0.0,87,0.00,,,0.00,WUHU216HW,2013-10-25 07:04:00,
2013-10-25 00:29:00,35.5,32.2,30.12,North,0,0.0,0.0,88,0.00,,,0.00,WUHU216HW,2013-10-25 07:29:00,
2013-10-25 00:34:00,35.5,32.2,30.12,North,0,0.0,0.0,88,0.00,,,0.00,WUHU216HW,2013-10-25 07:34:00,
2013-10-25 00:59:00,35.5,32.2,30.12,North,0,0.0,0.0,88,0.00,,,0.00,WUHU216HW,2013-10-25 07:59:00,
2013-10-25 01:04:00,35.5,32.2,30.12,North,0,0.0,0.0,88,0.00,,,0.00,WUHU216HW,2013-10-25 08:04:00,
2013-10-25 01:29:00,34.9,31.7,30.12,NNE,23,0.0,0.0,88,0.00,,,0.00,WUHU216HW,2013-10-25 08:29:00,
2013-10-25 01:34:00,34.9,31.7,30.12,NNE,23,0.0,0.0,88,0.00,,,0.00,WUHU216HW,2013-10-25 08:34:00,
2013-10-25 01:59:00,34.7,31.5,30.13,NE,45,0.0,0.0,88,0.00,,,0.00,WUHU216HW,2013-10-25 08:59:00,
2013-10-25 02:04:00,34.7,31.5,30.13,NE,45,0.0,0.0,88,0.00,,,0.00,WUHU216HW,2013-10-25 09:04:00,
2013-10-25 02:30:00,34.6,31.3,30.14,NNE,23,0.0,0.0,88,0.00,,,0.00,WUHU216HW,2013-10-25 09:30:00,
2013-10-25 02:35:00,34.6,31.3,30.14,NNE,23,0.0,0.0,88,0.00,,,0.00,WUHU216HW,2013-10-25 09:35:00,
2013-10-25 02:59:00,34.4,31.4,30.14,NE,45,0.7,0.7,89,0.00,,,0.00,WUHU216HW,2013-10-25 09:59:00,
2013-10-25 03:04:00,34.4,31.4,30.14,NE,45,0.7,0.7,89,0.00,,,0.00,WUHU216HW,2013-10-25 10:04:00,
2013-10-25 03:29:00,34.4,31.4,30.15,NE,45,0.7,0.7,89,0.00,,,0.00,WUHU216HW,2013-10-25 10:29:00,
2013-10-25 03:34:00,34.4,31.4,30.15,NE,45,0.7,0.7,89,0.00,,,0.00,WUHU216HW,2013-10-25 10:34:00,
2013-10-25 03:59:00,34.7,31.8,30.15,NW,315,0.0,0.0,89,0.00,,,0.00,WUHU216HW,2013-10-25 10:59:00,
2013-10-25 04:04:00,34.7,31.8,30.15,NW,315,0.0,0.0,89,0.00,,,0.00,WUHU216HW,2013-10-25 11:04:00,
2013-10-25 04:09:00,34.7,31.8,30.15,NW,315,0.0,0.0,89,0.00,,,0.00,WUHU216HW,2013-10-25 11:09:00,
2013-10-25 04:29:00,34.9,32.0,30.15,East,90,0.0,0.0,89,0.00,,,0.00,WUHU216HW,2013-10-25 11:29:00,
2013-10-25 04:34:00,34.9,32.0,30.15,East,90,0.0,0.0,89,0.00,,,0.00,WUHU216HW,2013-10-25 11:34:00,
2013-10-25 04:59:00,34.7,31.8,30.16,ENE,68,0.0,0.0,89,0.00,,,0.00,WUHU216HW,2013-10-25 11:59:00,
2013-10-25 05:04:00,34.7,31.8,30.16,ENE,68,0.0,0.0,89,0.00,,,0.00,WUHU216HW,2013-10-25 12:04:00,
2013-10-25 05:09:00,34.7,31.8,30.16,ENE,68,0.0,0.0,89,0.00,,,0.00,WUHU216HW,2013-10-25 12:09:00,
2013-10-25 05:29:00,34.9,32.2,30.16,NNE,23,1.1,1.1,90,0.00,,,0.00,WUHU216HW,2013-10-25 12:29:00,
2013-10-25 05:34:00,34.9,32.2,30.16,NNE,23,1.1,1.1,90,0.00,,,0.00,WUHU216HW,2013-10-25 12:34:00,
2013-10-25 05:59:00,34.4,31.7,30.17,NE,45,1.3,1.3,90,0.00,,,0.00,WUHU216HW,2013-10-25 12:59:00,
2013-10-25 06:04:00,34.4,31.7,30.17,NNE,23,1.1,1.3,90,0.00,,,0.00,WUHU216HW,2013-10-25 13:04:00,
2013-10-25 06:09:00,34.4,31.7,30.17,NNE,23,1.1,1.1,90,0.00,,,0.00,WUHU216HW,2013-10-25 13:09:00,
2013-10-25 06:29:00,34.6,32.1,30.17,NNE,23,0.9,0.9,91,0.00,,,0.00,WUHU216HW,2013-10-25 13:29:00,
2013-10-25 06:35:00,34.6,32.1,30.17,NNE,23,0.9,0.9,91,0.00,,,0.00,WUHU216HW,2013-10-25 13:35:00,
2013-10-25 06:59:00,34.6,32.1,30.18,NE,45,1.1,1.1,91,0.00,,,0.00,WUHU216HW,2013-10-25 13:59:00,
2013-10-25 07:04:00,34.6,32.1,30.18,NE,45,1.1,1.1,91,0.00,,,0.00,WUHU216HW,2013-10-25 14:04:00,
2013-10-25 07:09:00,34.6,32.1,30.18,NE,45,1.1,1.1,91,0.00,,,0.00,WUHU216HW,2013-10-25 14:09:00,
2013-10-25 07:29:00,34.9,32.5,30.19,NNE,23,0.4,0.4,91,0.00,,,0.00,WUHU216HW,2013-10-25 14:29:00,
2013-10-25 07:35:00,34.9,32.5,30.19,NNE,23,0.4,0.4,91,0.00,,,0.00,WUHU216HW,2013-10-25 14:35:00,
2013-10-25 07:59:00,34.6,32.1,30.20,NE,45,1.8,1.8,91,0.00,,,0.00,WUHU216HW,2013-10-25 14:59:00,
2013-10-25 08:04:00,34.6,32.1,30.20,NE,45,1.8,1.8,91,0.00,,,0.00,WUHU216HW,2013-10-25 15:04:00,
2013-10-25 08:09:00,34.6,32.1,30.20,NE,45,1.8,1.8,91,0.00,,,0.00,WUHU216HW,2013-10-25 15:09:00,
2013-10-25 08:30:00,35.3,33.1,30.21,ENE,68,1.3,1.3,92,0.00,,,0.00,WUHU216HW,2013-10-25 15:30:00,
2013-10-25 08:35:00,35.3,33.1,30.21,ENE,68,1.3,1.3,92,0.00,,,0.00,WUHU216HW,2013-10-25 15:35:00,
2013-10-25 08:59:00,35.6,33.5,30.22,NE,45,0.0,0.0,92,0.00,,,0.00,WUHU216HW,2013-10-25 15:59:00,
2013-10-25 09:04:00,35.6,33.5,30.22,NE,45,0.0,0.0,92,0.00,,,0.00,WUHU216HW,2013-10-25 16:04:00,
2013-10-25 09:29:00,36.9,34.7,30.22,East,90,0.7,0.7,92,0.00,,,0.00,WUHU216HW,2013-10-25 16:29:00,
2013-10-25 09:34:00,36.9,34.7,30.22,East,90,0.7,0.7,92,0.00,,,0.00,WUHU216HW,2013-10-25 16:34:00,
2013-10-25 09:59:00,38.3,36.2,30.23,NNE,23,1.1,1.1,92,0.00,,,0.00,WUHU216HW,2013-10-25 16:59:00,
2013-10-25 10:04:00,38.3,36.2,30.23,NNE,23,1.1,1.1,92,0.00,,,0.00,WUHU216HW,2013-10-25 17:04:00,
2013-10-25 10:29:00,39.4,37.5,30.23,NNE,23,0.7,0.7,93,0.00,,,0.00,WUHU216HW,2013-10-25 17:29:00,
2013-10-25 10:34:00,39.4,37.5,30.23,NNE,23,0.7,0.7,93,0.00,,,0.00,WUHU216HW,2013-10-25 17:34:00,
2013-10-25 10:59:00,40.3,38.4,30.24,NE,45,0.0,0.0,93,0.00,,,0.00,WUHU216HW,2013-10-25 17:59:00,
2013-10-25 11:04:00,40.3,38.4,30.24,NE,45,0.0,0.0,93,0.00,,,0.00,WUHU216HW,2013-10-25 18:04:00,
2013-10-25 11:29:00,41.2,39.1,30.24,NE,45,0.4,0.4,92,0.00,,,0.00,WUHU216HW,2013-10-25 18:29:00,
2013-10-25 11:34:00,41.2,39.1,30.24,NE,45,0.4,0.4,92,0.00,,,0.00,WUHU216HW,2013-10-25 18:34:00,
2013-10-25 11:59:00,41.8,39.3,30.24,NE,45,1.1,1.1,91,0.00,,,0.00,WUHU216HW,2013-10-25 18:59:00,
2013-10-25 12:04:00,41.8,39.3,30.24,NE,45,1.1,1.1,91,0.00,,,0.00,WUHU216HW,2013-10-25 19:04:00,
2013-10-25 12:29:00,42.5,39.8,30.24,NE,45,1.3,1.3,90,0.00,,,0.00,WUHU216HW,2013-10-25 19:29:00,
2013-10-25 12:34:00,42.5,39.8,30.24,NE,45,1.3,1.3,90,0.00,,,0.00,WUHU216HW,2013-10-25 19:34:00,
2013-10-25 12:59:00,43.0,40.1,30.24,East,90,0.2,0.2,89,0.00,,,0.00,WUHU216HW,2013-10-25 19:59:00,
2013-10-25 13:04:00,43.0,40.1,30.24,East,90,0.2,0.2,89,0.00,,,0.00,WUHU216HW,2013-10-25 20:04:00,
2013-10-25 13:29:00,44.5,41.5,30.23,NE,45,2.5,2.5,89,0.00,,,0.00,WUHU216HW,2013-10-25 20:29:00,
2013-10-25 13:34:00,44.5,41.5,30.23,NE,45,2.5,2.5,89,0.00,,,0.00,WUHU216HW,2013-10-25 20:34:00,
2013-10-25 13:59:00,45.5,42.2,30.22,ENE,68,0.2,0.2,88,0.00,,,0.00,WUHU216HW,2013-10-25 20:59:00,
2013-10-25 14:04:00,45.5,42.2,30.22,ENE,68,0.2,0.2,88,0.00,,,0.00,WUHU216HW,2013-10-25 21:04:00,
2013-10-25 14:30:00,47.5,43.2,30.22,South,180,1.8,1.8,85,0.00,,,0.00,WUHU216HW,2013-10-25 21:30:00,
2013-10-25 14:35:00,47.5,43.2,30.22,South,180,1.8,1.8,85,0.00,,,0.00,WUHU216HW,2013-10-25 21:35:00,
2013-10-25 14:59:00,49.5,44.2,30.21,ENE,68,0.4,0.4,82,0.00,,,0.00,WUHU216HW,2013-10-25 21:59:00,
2013-10-25 15:04:00,49.5,44.2,30.21,ENE,68,0.4,0.4,82,0.00,,,0.00,WUHU216HW,2013-10-25 22:04:00,
2013-10-25 15:09:00,49.5,44.2,30.21,ENE,68,0.4,0.4,82,0.00,,,0.00,WUHU216HW,2013-10-25 22:09:00,
2013-10-25 15:29:00,50.0,44.7,30.20,NE,45,0.0,0.0,82,0.00,,,0.00,WUHU216HW,2013-10-25 22:29:00,
2013-10-25 15:34:00,50.0,44.7,30.20,NE,45,0.0,0.0,82,0.00,,,0.00,WUHU216HW,2013-10-25 22:34:00,
2013-10-25 15:59:00,50.8,45.1,30.19,NNE,23,0.4,0.4,81,0.00,,,0.00,WUHU216HW,2013-10-25 22:59:00,
2013-10-25 16:04:00,50.8,45.1,30.19,NNE,23,0.4,0.4,81,0.00,,,0.00,WUHU216HW,2013-10-25 23:04:00,
2013-10-25 16:09:00,50.8,45.1,30.19,NNE,23,0.4,0.4,81,0.00,,,0.00,WUHU216HW,2013-10-25 23:09:00,
2013-10-25 16:29:00,51.3,45.4,30.19,NE,45,0.0,0.0,80,0.00,,,0.00,WUHU216HW,2013-10-25 23:29:00,
2013-10-25 16:34:00,51.3,45.4,30.19,NE,45,0.0,0.0,80,0.00,,,0.00,WUHU216HW,2013-10-25 23:34:00,
2013-10-25 16:59:00,50.2,44.9,30.19,NE,45,0.0,0.0,82,0.00,,,0.00,WUHU216HW,2013-10-25 23:59:00,
2013-10-25 17:04:00,50.2,44.9,30.19,NE,45,0.0,0.0,82,0.00,,,0.00,WUHU216HW,2013-10-26 00:04:00,
2013-10-25 17:29:00,48.1,43.5,30.19,NE,45,0.0,0.0,84,0.00,,,0.00,WUHU216HW,2013-10-26 00:29:00,
2013-10-25 17:34:00,48.1,43.5,30.19,NE,45,0.0,0.0,84,0.00,,,0.00,WUHU216HW,2013-10-26 00:34:00,
2013-10-25 17:59:00,46.1,42.1,30.19,NE,45,0.0,0.0,86,0.00,,,0.00,WUHU216HW,2013-10-26 00:59:00,
2013-10-25 18:04:00,46.1,42.1,30.19,NE,45,0.0,0.0,86,0.00,,,0.00,WUHU216HW,2013-10-26 01:04:00,
2013-10-25 18:29:00,44.1,40.5,30.19,NE,45,0.0,0.0,87,0.00,,,0.00,WUHU216HW,2013-10-26 01:29:00,
2013-10-25 18:34:00,44.1,40.5,30.19,NE,45,0.0,0.0,87,0.00,,,0.00,WUHU216HW,2013-10-26 01:34:00,
2013-10-25 18:59:00,42.7,38.7,30.20,NE,45,0.0,0.0,86,0.00,,,0.00,WUHU216HW,2013-10-26 01:59:00,
2013-10-25 19:04:00,42.7,38.7,30.20,NE,45,0.0,0.0,86,0.00,,,0.00,WUHU216HW,2013-10-26 02:04:00,
2013-10-25 19:29:00,41.0,37.5,30.20,NE,45,0.0,0.0,87,0.00,,,0.00,WUHU216HW,2013-10-26 02:29:00,
2013-10-25 19:34:00,41.0,37.5,30.20,NE,45,0.0,0.0,87,0.00,,,0.00,WUHU216HW,2013-10-26 02:34:00,
2013-10-25 19:59:00,40.0,36.4,30.21,NE,45,0.0,0.0,87,0.00,,,0.00,WUHU216HW,2013-10-26 02:59:00,
2013-10-25 20:04:00,40.0,36.4,30.21,NE,45,0.0,0.0,87,0.00,,,0.00,WUHU216HW,2013-10-26 03:04:00,
2013-10-25 20:29:00,38.9,35.7,30.21,NE,45,0.0,0.0,88,0.00,,,0.00,WUHU216HW,2013-10-26 03:29:00,
2013-10-25 20:34:00,38.9,35.7,30.21,NE,45,0.0,0.0,88,0.00,,,0.00,WUHU216HW,2013-10-26 03:34:00,
2013-10-25 20:59:00,38.0,35.0,30.21,NE,45,0.0,0.0,89,0.00,,,0.00,WUHU216HW,2013-10-26 03:59:00,
2013-10-25 21:01:00,38.0,35.0,30.21,NE,45,0.0,0.0,89,0.00,,,0.00,WUHU216HW,2013-10-26 04:01:00,
2013-10-25 21:02:00,38.0,35.0,30.21,NE,45,0.0,0.0,89,0.00,,,0.00,WUHU216HW,2013-10-26 04:02:00,
2013-10-25 21:07:00,38.0,35.0,30.21,NE,45,0.0,0.0,89,0.00,,,0.00,WUHU216HW,2013-10-26 04:07:00,
2013-10-25 21:29:00,37.1,33.9,30.22,NE,45,0.0,0.0,88,0.00,,,0.00,WUHU216HW,2013-10-26 04:29:00,
2013-10-25 21:34:00,37.1,33.9,30.22,NE,45,0.0,0.0,88,0.00,,,0.00,WUHU216HW,2013-10-26 04:34:00,
2013-10-25 21:59:00,37.1,33.9,30.23,NE,45,0.0,0.0,88,0.00,,,0.00,WUHU216HW,2013-10-26 04:59:00,
2013-10-25 22:04:00,37.1,33.9,30.23,NE,45,0.0,0.0,88,0.00,,,0.00,WUHU216HW,2013-10-26 05:04:00,
2013-10-25 22:29:00,37.1,34.1,30.23,NE,45,0.0,0.0,89,0.00,,,0.00,WUHU216HW,2013-10-26 05:29:00,
2013-10-25 22:34:00,37.1,34.1,30.23,NE,45,0.0,0.0,89,0.00,,,0.00,WUHU216HW,2013-10-26 05:34:00,
2013-10-25 22:59:00,37.1,34.1,30.23,NE,45,0.0,0.0,89,0.00,,,0.00,WUHU216HW,2013-10-26 05:59:00,
2013-10-25 23:04:00,37.1,34.1,30.23,NE,45,0.0,0.0,89,0.00,,,0.00,WUHU216HW,2013-10-26 06:04:00,
2013-10-25 23:29:00,36.7,33.8,30.24,NE,45,0.0,0.0,89,0.00,,,0.00,WUHU216HW,2013-10-26 06:29:00,
2013-10-25 23:34:00,36.7,33.8,30.24,NE,45,0.0,0.0,89,0.00,,,0.00,WUHU216HW,2013-10-26 06:34:00,
2013-10-25 23:59:00,37.1,34.1,30.24,NE,45,0.7,0.7,89,0.00,,,0.00,WUHU216HW,2013-10-26 06:59:00,